When you browse on this site, cookies collect data to enhance your experience and personalize the content and advertising you see.
Visit our Privacy Policy to learn more. By continuing to use the site, you agree to this use of cookies and data.

Hourly Weather Korobino

Today, 9 July, Thursday

Time Temperature Precipitation Wind Pressure Humidity
00:00 +12°C° 0 mm 2 mps 739 mmHg 97%
01:00 +11°C° 0 mm 1 mps 739 mmHg 97%
02:00 +11°C° 0 mm 1 mps 739 mmHg 97%
03:00 +11°C° 0 mm 1 mps 739 mmHg 97%
04:00 +12°C° 0 mm 1 mps 739 mmHg 96%
05:00 +12°C° 0 mm 2 mps 739 mmHg 96%
06:00 +14°C° 0 mm 1 mps 740 mmHg 89%
07:00 +15°C° 0 mm 1 mps 740 mmHg 82%
08:00 +18°C° 0 mm 1 mps 740 mmHg 75%
09:00 +18°C° 0.4 mm 2 mps 740 mmHg 71%
10:00 +18°C° 0.4 mm 2 mps 740 mmHg 67%
11:00 +19°C° 0.4 mm 3 mps 741 mmHg 63%
12:00 +19°C° 0.6 mm 3 mps 741 mmHg 68%
13:00 +19°C° 0.6 mm 3 mps 741 mmHg 72%
14:00 +18°C° 0.6 mm 3 mps 741 mmHg 76%
15:00 +18°C° 0.4 mm 3 mps 741 mmHg 77%
16:00 +18°C° 0.4 mm 3 mps 741 mmHg 78%
17:00 +18°C° 0.4 mm 3 mps 741 mmHg 80%
18:00 +16°C° 0.1 mm 2 mps 741 mmHg 83%
19:00 +15°C° 0.1 mm 1 mps 741 mmHg 86%
20:00 +14°C° 0.1 mm 1 mps 742 mmHg 89%
21:00 +13°C° 0 mm 1 mps 742 mmHg 90%
22:00 +12°C° 0 mm 1 mps 742 mmHg 91%
23:00 +10°C° 0 mm 2 mps 743 mmHg 91%

Tomorrow, 10 July, Friday

Time Temperature Precipitation Wind Pressure Humidity
00:00 +9°C° 0 mm 2 mps 743 mmHg 92%
01:00 +9°C° 0 mm 2 mps 743 mmHg 92%
02:00 +8°C° 0 mm 2 mps 744 mmHg 93%
03:00 +9°C° 0 mm 2 mps 744 mmHg 92%
04:00 +10°C° 0 mm 2 mps 744 mmHg 90%
05:00 +10°C° 0 mm 2 mps 744 mmHg 89%
06:00 +13°C° 0 mm 2 mps 745 mmHg 81%
07:00 +15°C° 0 mm 2 mps 745 mmHg 72%
08:00 +18°C° 0 mm 2 mps 745 mmHg 64%
09:00 +19°C° 0 mm 3 mps 745 mmHg 60%
10:00 +20°C° 0 mm 3 mps 745 mmHg 55%
11:00 +21°C° 0 mm 3 mps 745 mmHg 51%
12:00 +21°C° 0.1 mm 4 mps 745 mmHg 51%
13:00 +22°C° 0.1 mm 4 mps 745 mmHg 50%
14:00 +22°C° 0.1 mm 4 mps 744 mmHg 50%
15:00 +21°C° 0.1 mm 3 mps 744 mmHg 58%
16:00 +19°C° 0.1 mm 3 mps 744 mmHg 67%
17:00 +18°C° 0.1 mm 2 mps 744 mmHg 75%
18:00 +18°C° 0 mm 3 mps 744 mmHg 76%
19:00 +17°C° 0 mm 3 mps 744 mmHg 78%
20:00 +17°C° 0 mm 3 mps 744 mmHg 80%
21:00 +17°C° 0.1 mm 3 mps 744 mmHg 82%
22:00 +17°C° 0.1 mm 4 mps 744 mmHg 85%
23:00 +17°C° 0.1 mm 4 mps 743 mmHg 87%

Day after tomorrow, 11 July, Saturday

Time Temperature Precipitation Wind Pressure Humidity
00:00 +15°C° 0.1 mm 4 mps 743 mmHg 89%
01:00 +15°C° 0.1 mm 4 mps 743 mmHg 92%
02:00 +15°C° 0.1 mm 4 mps 743 mmHg 94%
03:00 +15°C° 0 mm 4 mps 743 mmHg 94%
04:00 +17°C° 0 mm 4 mps 743 mmHg 93%
05:00 +17°C° 0 mm 4 mps 743 mmHg 93%
06:00 +18°C° 0 mm 4 mps 744 mmHg 90%
07:00 +19°C° 0 mm 4 mps 744 mmHg 87%
08:00 +20°C° 0 mm 4 mps 744 mmHg 83%
09:00 +21°C° 0 mm 4 mps 744 mmHg 77%
10:00 +23°C° 0 mm 4 mps 744 mmHg 72%
11:00 +25°C° 0 mm 4 mps 744 mmHg 66%
12:00 +25°C° 0.2 mm 4 mps 744 mmHg 69%
13:00 +25°C° 0.2 mm 4 mps 743 mmHg 73%
14:00 +25°C° 0.2 mm 4 mps 743 mmHg 77%
15:00 +25°C° 0.6 mm 4 mps 743 mmHg 81%
16:00 +25°C° 0.6 mm 4 mps 743 mmHg 86%
17:00 +24°C° 0.6 mm 3 mps 743 mmHg 90%
18:00 +22°C° 0.9 mm 3 mps 743 mmHg 92%
19:00 +21°C° 0.9 mm 3 mps 743 mmHg 93%
20:00 +20°C° 0.9 mm 2 mps 743 mmHg 95%
21:00 +20°C° 0.4 mm 2 mps 744 mmHg 96%
22:00 +19°C° 0.4 mm 2 mps 744 mmHg 97%
23:00 +19°C° 0.4 mm 2 mps 744 mmHg 98%

12 July, Sunday

Time Temperature Precipitation Wind Pressure Humidity
00:00 +18°C° 0 mm 2 mps 744 mmHg 98%
01:00 +18°C° 0 mm 2 mps 744 mmHg 98%
02:00 +18°C° 0 mm 1 mps 744 mmHg 98%
03:00 +18°C° 0.3 mm 1 mps 744 mmHg 98%
04:00 +18°C° 0.3 mm 1 mps 744 mmHg 98%
05:00 +18°C° 0.3 mm 1 mps 744 mmHg 98%
06:00 +19°C° 0.2 mm 1 mps 745 mmHg 95%
07:00 +20°C° 0.2 mm 1 mps 745 mmHg 92%
08:00 +20°C° 0.2 mm 1 mps 745 mmHg 88%
09:00 +21°C° 0.2 mm 1 mps 745 mmHg 86%
10:00 +21°C° 0.2 mm 1 mps 745 mmHg 83%
11:00 +22°C° 0.2 mm 1 mps 745 mmHg 80%
12:00 +21°C° 0.5 mm 1 mps 745 mmHg 84%
13:00 +21°C° 0.5 mm 1 mps 745 mmHg 88%
14:00 +19°C° 0.5 mm 2 mps 745 mmHg 91%
15:00 +19°C° 0 mm 2 mps 745 mmHg 89%
16:00 +19°C° 0 mm 2 mps 744 mmHg 86%
17:00 +20°C° 0 mm 2 mps 744 mmHg 83%
18:00 +19°C° 0 mm 2 mps 744 mmHg 84%
19:00 +19°C° 0 mm 2 mps 744 mmHg 84%
20:00 +18°C° 0 mm 2 mps 744 mmHg 85%
21:00 +18°C° 0.3 mm 2 mps 743 mmHg 88%
22:00 +17°C° 0.3 mm 2 mps 743 mmHg 91%
23:00 +16°C° 0.3 mm 2 mps 743 mmHg 93%

13 July, Monday

Time Temperature Precipitation Wind Pressure Humidity
00:00 +16°C° 0.6 mm 2 mps 742 mmHg 95%
01:00 +16°C° 0.6 mm 2 mps 742 mmHg 96%
02:00 +15°C° 0.6 mm 2 mps 741 mmHg 98%
03:00 +16°C° 0 mm 2 mps 741 mmHg 98%
04:00 +17°C° 0 mm 2 mps 741 mmHg 98%
05:00 +18°C° 0 mm 1 mps 740 mmHg 99%
06:00 +19°C° 0 mm 1 mps 740 mmHg 96%
07:00 +21°C° 0 mm 1 mps 740 mmHg 93%
08:00 +22°C° 0 mm 1 mps 739 mmHg 90%
09:00 +22°C° 0.6 mm 1 mps 739 mmHg 90%
10:00 +22°C° 0.6 mm 1 mps 739 mmHg 91%
11:00 +23°C° 0.6 mm 1 mps 738 mmHg 92%
12:00 +22°C° 1.1 mm 1 mps 738 mmHg 93%
13:00 +21°C° 1.1 mm 2 mps 737 mmHg 93%
14:00 +20°C° 1.1 mm 2 mps 737 mmHg 94%
15:00 +22°C° 0.7 mm 1 mps 737 mmHg 93%
16:00 +22°C° 0.7 mm 1 mps 736 mmHg 92%
17:00 +22°C° 0.7 mm 1 mps 736 mmHg 90%
18:00 +21°C° 0.7 mm 1 mps 736 mmHg 92%
19:00 +21°C° 0.7 mm 1 mps 735 mmHg 94%
20:00 +20°C° 0.7 mm 1 mps 735 mmHg 95%
21:00 +19°C° 0.2 mm 1 mps 735 mmHg 96%
22:00 +19°C° 0.2 mm 1 mps 735 mmHg 97%
23:00 +17°C° 0.2 mm 2 mps 735 mmHg 98%

14 July, Tuesday

Time Temperature Precipitation Wind Pressure Humidity
00:00 +17°C° 0.3 mm 2 mps 734 mmHg 98%
01:00 +17°C° 0.3 mm 2 mps 734 mmHg 98%
02:00 +17°C° 0.3 mm 2 mps 734 mmHg 99%
03:00 +17°C° 0.2 mm 3 mps 734 mmHg 98%
04:00 +17°C° 0.2 mm 3 mps 734 mmHg 98%
05:00 +17°C° 0.2 mm 3 mps 734 mmHg 98%
06:00 +17°C° 0.1 mm 3 mps 734 mmHg 97%
07:00 +17°C° 0.1 mm 3 mps 734 mmHg 96%
08:00 +17°C° 0.1 mm 3 mps 734 mmHg 95%
09:00 +17°C° 0 mm 3 mps 734 mmHg 92%
10:00 +18°C° 0 mm 3 mps 735 mmHg 89%
11:00 +18°C° 0 mm 3 mps 735 mmHg 86%
12:00 +18°C° 0.4 mm 3 mps 735 mmHg 88%
13:00 +17°C° 0.4 mm 3 mps 735 mmHg 91%
14:00 +17°C° 0.4 mm 3 mps 735 mmHg 94%
15:00 +17°C° 0.5 mm 3 mps 735 mmHg 95%
16:00 +16°C° 0.5 mm 3 mps 735 mmHg 96%
17:00 +14°C° 0.5 mm 3 mps 735 mmHg 97%
18:00 +14°C° 0.5 mm 3 mps 736 mmHg 97%
19:00 +14°C° 0.5 mm 3 mps 736 mmHg 97%
20:00 +14°C° 0.5 mm 3 mps 736 mmHg 98%
21:00 +14°C° 0.9 mm 3 mps 736 mmHg 98%
22:00 +14°C° 0.9 mm 3 mps 735 mmHg 98%
23:00 +14°C° 0.9 mm 4 mps 735 mmHg 98%
Show more